Regional Weather Roundup
Issued by NWS

Home | Current Version | Previous Version | Graphics & Text | Print | Product List | Glossary On
Versions: 1 2 3 4 5 6 7 8 9 10 11 12 13 14 15 16 17 18 19 20 21 22 23 24 25 26 27 28 29 30 31 32 33 34 35 36 37 38 39 40 41 42 43 44 45 46 47 48 49 50
000
ASUS43 KTOP 101859
RWRKS

WEATHER ROUNDUP FOR KANSAS
NATIONAL WEATHER SERVICE GOODLAND KS
100 PM CST SUN DEC 10 2017

NOTE:  "FAIR" INDICATES FEW OR NO CLOUDS BELOW 12,000 FEET WITH NO
SIGNIFICANT WEATHER AND/OR OBSTRUCTIONS TO VISIBILITY.

KSZ001>006-013>018-027>032-041>047-102000-
NORTHWEST KANSAS

CITY           SKY/WX    TMP DP  RH WIND       PRES   REMARKS
GOODLAND       SUNNY     61   2   9 N14G25    30.34F
HAYS           SUNNY     64  12  13 NW17      30.26F
HILL CITY      SUNNY     64  12  13 W13       30.27F
RUSSELL        SUNNY     66  14  13 NW20      30.23F
$$

KSZ061>065-074>080-084>089-102000-
SOUTHWEST KANSAS

CITY           SKY/WX    TMP DP  RH WIND       PRES   REMARKS
DODGE CITY     SUNNY     64  11  12 NW13      30.32F
GARDEN CITY    SUNNY     62   3   9 NW14      30.34F
GREAT BEND     SUNNY     64  14  14 NW15      30.26F
LIBERAL        SUNNY     64   7  10 N12       30.36F
$$

KSZ066>073-081>083-090>101-102000-
SOUTHEAST KANSAS

CITY           SKY/WX    TMP DP  RH WIND       PRES   REMARKS
CHANUTE        SUNNY     60  19  20 NW13      30.18F
COFFEYVILLE    SUNNY     61  20  20 W12       30.19F
HUTCHINSON     SUNNY     65  14  14 NW13G24   30.23F
MEDICINE LODGE   N/A     67  14  13 N10       30.26F
NEWTON         SUNNY     60  16  18 NW23G29   30.21F
PARSONS        SUNNY     61  18  18 NW12      30.19F
WICHITA INTL   MOSUNNY   63  17  17 N18G25    30.22F
WICHITA JABRA  SUNNY     62  17  17 NW20G25   30.22F
WICHITA MCCONL SUNNY     61  17  18 NW14G23   30.21F
WINFIELD       SUNNY     62  16  16 NW17      30.23F
$$

KSZ007>012-019>026-033>040-048>060-102>105-102000-
NORTHEAST KANSAS

CITY           SKY/WX    TMP DP  RH WIND       PRES   REMARKS
CONCORDIA      SUNNY     62  17  17 NW14      30.17F
EMPORIA        SUNNY     58  21  24 NW16      30.18S
LAWRENCE       SUNNY     56  23  27 W17       30.13F
MANHATTAN      SUNNY     61  20  20 NW8G17    30.17F
OLATHE IND     SUNNY     54  25  32 W15       30.13F
OLATHE EXE     SUNNY     53  25  33 W12       30.11F
SALINA         SUNNY     63  16  16 NW16      30.21F
TOPEKA BILLARD SUNNY     57  22  25 NW15      30.14F
TOPEKA FORBES  SUNNY     59  22  24 NW14      30.14F
$$




USA.gov is the U.S. government's official web portal to all federal, state and local government web resources and services.